Volver al catálogo

CatSat

CATSAT

ActivoRadioaficionadoSSO
NORAD 60246·PAYLOAD·🇺🇸 United States

Lanzado Jul 4, 2024 desde Vandenberg Space Force Base

Loading…

Próximos Pases (próximas 24 horas)

TLE

ActualizadoSource: Space-Track

Época: Sep 14, 2026, 08:38 UTC

1 60246U 24125J   26257.36025011  .00090279  00000-0  69832-3 0  9990
2 60246  97.1950 111.7636 0015239 199.4227 160.6457 15.71456844121334

Sigue CatSat en tiempo real con AllMySat

Download on the App Store